TJS-2

Last updated on Fri Dec 19 2025 00:02:52 GMT+0000 (Coordinated Universal Time)

1 41911U 17001A 25352.63845513 .00000018 00000+0 00000+0 0 9994 2 41911 0.3660 88.2880 0002137 202.5900 93.0028 1.00271210 32908
UTC large
Height (km)
Speed (km/s)
/
Latitude / Longitude
Inclination (degrees)
Orbital Period (minutes)
Azimuth
Elevation
Range (km)
Doppler Factor

Next 0 passes for location: London (51.5072 / 0.1276)

Sorry there are no passes over London.